Location: Gaspur (historical)
(33.7814°N, 118.2212°W)
Time: 23:45:43
(UTC+00:00)

Aureole 3 - Pass Details

Date: 29 October 2020
Orbit: 382 x 1231 km, 82.5° (Epoch: 29 November)

Event Time Altitude Azimuth Distance (km) Brightness Sun altitude
Rises 12:50:27 0° 355° (N) 2,902 6.9 -17.1°
Reaches altitude 10° 12:52:27 10° 356° (N) 2,104 6.2 -16.6°
Maximum altitude 12:57:11 80° 84° (E) 810 4.2 -15.7°
Drops below altitude 10° 13:03:14 10° 171° (S) 2,664 7.0 -14.4°
Sets 13:06:02 0° 173° (S) 3,737 7.8 -13.8°
